TimePST,TemperatureF,Dew PointF,Humidity,Sea Level PressureIn,VisibilityMPH,Wind Direction,Wind SpeedMPH,Gust SpeedMPH,PrecipitationIn,Events,Conditions,WindDirDegrees,DateUTC
12:17 AM,60.8,57.2,88,30.17,5.0,Calm,Calm,-,N/A,,Overcast,0,2012-11-30 08:17:00
12:53 AM,61.0,57.9,90,30.16,5.0,Calm,Calm,-,N/A,,Overcast,0,2012-11-30 08:53:00
1:22 AM,60.8,57.2,88,30.16,2.0,Calm,Calm,-,N/A,,Overcast,0,2012-11-30 09:22:00
1:41 AM,60.8,57.2,88,30.16,2.5,Calm,Calm,-,N/A,,Overcast,0,2012-11-30 09:41:00
1:53 AM,60.1,59.0,96,30.15,2.0,Calm,Calm,-,N/A,,Overcast,0,2012-11-30 09:53:00
2:09 AM,60.8,57.2,88,30.15,3.0,Calm,Calm,-,N/A,,Overcast,0,2012-11-30 10:09:00
2:22 AM,60.8,59.0,94,30.15,2.5,Calm,Calm,-,N/A,,Overcast,0,2012-11-30 10:22:00
2:31 AM,60.8,59.0,94,30.15,3.0,Calm,Calm,-,N/A,,Overcast,0,2012-11-30 10:31:00
2:44 AM,60.8,59.0,94,30.15,2.0,Calm,Calm,-,0.00,Rain,Light Rain,0,2012-11-30 10:44:00
2:53 AM,60.1,57.9,93,30.14,1.5,Calm,Calm,-,0.00,Rain,Light Rain,0,2012-11-30 10:53:00
3:28 AM,60.8,59.0,94,30.14,1.0,Calm,Calm,-,0.01,Rain,Light Rain,0,2012-11-30 11:28:00
3:50 AM,60.8,59.0,94,30.14,1.5,Calm,Calm,-,0.01,,Overcast,0,2012-11-30 11:50:00
3:53 AM,60.1,59.0,96,30.13,1.8,Calm,Calm,-,0.01,,Overcast,0,2012-11-30 11:53:00
4:01 AM,60.8,59.0,94,30.14,1.8,Calm,Calm,-,0.00,Rain,Light Rain,0,2012-11-30 12:01:00
4:11 AM,60.8,59.0,94,30.14,1.2,Calm,Calm,-,0.00,Rain,Light Rain,0,2012-11-30 12:11:00
4:48 AM,60.8,57.2,88,30.14,2.0,Calm,Calm,-,0.01,Rain,Light Rain,0,2012-11-30 12:48:00
4:53 AM,60.1,57.9,93,30.13,2.0,Calm,Calm,-,0.01,Rain,Light Rain,0,2012-11-30 12:53:00
5:09 AM,60.8,57.2,88,30.13,1.8,Calm,Calm,-,0.00,,Overcast,0,2012-11-30 13:09:00
5:16 AM,60.8,57.2,88,30.13,2.0,Calm,Calm,-,0.00,,Overcast,0,2012-11-30 13:16:00
5:28 AM,60.8,57.2,88,30.14,1.8,Calm,Calm,-,0.00,Rain,Light Rain,0,2012-11-30 13:28:00
5:36 AM,60.8,57.2,88,30.14,1.2,Calm,Calm,-,0.00,Rain,Light Rain,0,2012-11-30 13:36:00
5:53 AM,60.1,59.0,96,30.14,1.2,Calm,Calm,-,0.01,Rain,Light Rain,0,2012-11-30 13:53:00
6:04 AM,60.8,59.0,94,30.14,1.0,Calm,Calm,-,0.01,Rain,Light Rain,0,2012-11-30 14:04:00
6:13 AM,60.8,59.0,94,30.14,1.2,Calm,Calm,-,0.01,Rain,Light Rain,0,2012-11-30 14:13:00
6:31 AM,60.8,59.0,94,30.14,2.5,Calm,Calm,-,0.01,,Overcast,0,2012-11-30 14:31:00
6:53 AM,60.1,59.0,96,30.14,1.2,Calm,Calm,-,0.01,Rain,Light Rain,0,2012-11-30 14:53:00
7:53 AM,60.1,59.0,96,30.15,1.2,Variable,3.5,-,0.00,Rain,Light Rain,0,2012-11-30 15:53:00
8:53 AM,61.0,59.0,93,30.16,3.0,Calm,Calm,-,0.00,,Overcast,0,2012-11-30 16:53:00
9:00 AM,62.6,60.8,94,30.17,2.5,Calm,Calm,-,0.00,Rain,Light Rain,0,2012-11-30 17:00:00
9:15 AM,62.6,60.8,94,30.17,3.0,Calm,Calm,-,0.00,,Overcast,0,2012-11-30 17:15:00
9:53 AM,63.0,60.1,90,30.17,5.0,West,3.5,-,0.00,,Mostly Cloudy,260,2012-11-30 17:53:00
10:26 AM,66.2,62.6,88,30.16,7.0,South,5.8,-,N/A,,Mostly Cloudy,180,2012-11-30 18:26:00
10:53 AM,66.9,60.1,79,30.14,8.0,SW,4.6,-,N/A,,Overcast,220,2012-11-30 18:53:00
11:53 AM,66.0,61.0,84,30.13,6.0,West,10.4,-,0.00,Rain,Light Rain,260,2012-11-30 19:53:00
12:53 PM,64.9,62.1,90,30.11,4.0,WSW,9.2,-,0.00,Rain,Light Rain,240,2012-11-30 20:53:00
1:53 PM,64.9,61.0,87,30.10,8.0,WSW,11.5,-,0.00,,Mostly Cloudy,240,2012-11-30 21:53:00
2:21 PM,64.4,62.6,94,30.12,2.5,West,9.2,-,0.01,Rain,Light Rain,260,2012-11-30 22:21:00
2:34 PM,64.4,62.6,94,30.12,2.0,West,9.2,-,0.04,Rain,Rain,260,2012-11-30 22:34:00
2:53 PM,64.0,62.1,93,30.12,2.0,West,8.1,-,0.07,Rain,Light Rain,270,2012-11-30 22:53:00
2:59 PM,64.4,62.6,94,30.12,3.0,West,6.9,-,0.00,Rain,Light Rain,260,2012-11-30 22:59:00
3:06 PM,64.4,62.6,94,30.12,2.0,West,6.9,-,0.00,,Overcast,270,2012-11-30 23:06:00
3:22 PM,62.6,62.6,100,30.13,2.0,West,10.4,-,0.05,Rain,Light Rain,280,2012-11-30 23:22:00
3:53 PM,64.0,62.1,93,30.12,6.0,West,5.8,-,0.07,,Mostly Cloudy,270,2012-11-30 23:53:00
4:28 PM,64.4,60.8,88,30.13,7.0,WNW,4.6,-,N/A,,Mostly Cloudy,290,2012-12-01 00:28:00
4:36 PM,64.4,60.8,88,30.13,7.0,West,5.8,-,N/A,,Mostly Cloudy,270,2012-12-01 00:36:00
4:53 PM,63.0,61.0,93,30.12,10.0,West,3.5,-,N/A,,Mostly Cloudy,260,2012-12-01 00:53:00
5:53 PM,61.0,60.1,97,30.07,10.0,SSE,4.6,-,N/A,,Partly Cloudy,150,2012-12-01 01:53:00
7:53 PM,60.1,59.0,96,30.12,10.0,West,4.6,-,N/A,,Overcast,270,2012-12-01 03:53:00
8:53 PM,62.1,59.0,90,30.13,6.0,WNW,3.5,-,N/A,,Overcast,290,2012-12-01 04:53:00
9:00 PM,62.6,60.8,94,30.14,6.0,West,3.5,-,N/A,,Overcast,280,2012-12-01 05:00:00
9:08 PM,60.8,59.0,94,30.14,6.0,West,4.6,-,N/A,,Overcast,280,2012-12-01 05:08:00
9:23 PM,62.6,60.8,94,30.15,5.0,West,4.6,-,N/A,,Overcast,270,2012-12-01 05:23:00
9:53 PM,61.0,60.1,97,30.14,5.0,WSW,3.5,-,N/A,,Overcast,240,2012-12-01 05:53:00
10:11 PM,60.8,59.0,94,30.15,4.0,WNW,4.6,-,N/A,,Mostly Cloudy,290,2012-12-01 06:11:00
10:33 PM,60.8,57.2,88,30.15,4.0,WNW,3.5,-,N/A,,Mostly Cloudy,290,2012-12-01 06:33:00
10:53 PM,60.1,59.0,96,30.14,4.0,West,3.5,-,N/A,,Overcast,270,2012-12-01 06:53:00
11:16 PM,57.2,57.2,100,30.15,3.0,Calm,Calm,-,N/A,,Scattered Clouds,0,2012-12-01 07:16:00
11:40 PM,57.2,57.2,100,30.16,2.5,Calm,Calm,-,N/A,,Mostly Cloudy,0,2012-12-01 07:40:00
11:51 PM,57.2,57.2,100,30.15,3.0,Calm,Calm,-,N/A,,Scattered Clouds,0,2012-12-01 07:51:00
11:53 PM,57.9,57.0,97,30.15,3.0,Calm,Calm,-,N/A,,Partly Cloudy,0,2012-12-01 07:53:00